Stündliche Wetter Bolshie Hutora

Heute, 21 April, Mittwoch

Zeit Temperatur Niederschläge Wind Luftdruck Luftfeuchtigkeit
00:00 +2°C° 0 mm 3 m/S 739 mmHg 89%
01:00 +2°C° 0 mm 3 m/S 738 mmHg 89%
02:00 +3°C° 0 mm 2 m/S 738 mmHg 90%
03:00 +3°C° 0 mm 2 m/S 738 mmHg 89%
04:00 +3°C° 0 mm 2 m/S 737 mmHg 89%
05:00 +3°C° 0 mm 2 m/S 737 mmHg 88%
06:00 +3°C° 0 mm 2 m/S 737 mmHg 84%
07:00 +3°C° 0 mm 3 m/S 737 mmHg 81%
08:00 +3°C° 0 mm 3 m/S 737 mmHg 77%
09:00 +5°C° 0 mm 3 m/S 737 mmHg 71%
10:00 +7°C° 0 mm 3 m/S 737 mmHg 65%
11:00 +8°C° 0 mm 3 m/S 737 mmHg 59%
12:00 +8°C° 0 mm 3 m/S 738 mmHg 60%
13:00 +8°C° 0 mm 3 m/S 738 mmHg 61%
14:00 +8°C° 0 mm 3 m/S 738 mmHg 62%
15:00 +8°C° 0.1 mm 3 m/S 738 mmHg 64%
16:00 +8°C° 0.1 mm 3 m/S 738 mmHg 65%
17:00 +8°C° 0.1 mm 3 m/S 738 mmHg 67%
18:00 +8°C° 0 mm 3 m/S 739 mmHg 71%
19:00 +7°C° 0 mm 2 m/S 739 mmHg 75%
20:00 +6°C° 0 mm 2 m/S 739 mmHg 79%
21:00 +5°C° 0 mm 2 m/S 739 mmHg 80%
22:00 +5°C° 0 mm 2 m/S 739 mmHg 81%
23:00 +3°C° 0 mm 3 m/S 739 mmHg 83%

Morgen, 22 April, Donnerstag

Zeit Temperatur Niederschläge Wind Luftdruck Luftfeuchtigkeit
00:00 +3°C° 0 mm 3 m/S 740 mmHg 82%
01:00 +4°C° 0 mm 3 m/S 740 mmHg 81%
02:00 +4°C° 0 mm 3 m/S 740 mmHg 80%
03:00 +4°C° 0 mm 3 m/S 740 mmHg 83%
04:00 +4°C° 0 mm 3 m/S 740 mmHg 86%
05:00 +4°C° 0 mm 3 m/S 740 mmHg 89%
06:00 +5°C° 0 mm 4 m/S 740 mmHg 86%
07:00 +6°C° 0 mm 4 m/S 740 mmHg 83%
08:00 +7°C° 0 mm 5 m/S 740 mmHg 80%
09:00 +9°C° 0.2 mm 5 m/S 740 mmHg 73%
10:00 +11°C° 0.2 mm 6 m/S 740 mmHg 67%
11:00 +13°C° 0.2 mm 6 m/S 740 mmHg 60%
12:00 +13°C° 0.5 mm 6 m/S 740 mmHg 60%
13:00 +14°C° 0.5 mm 6 m/S 740 mmHg 59%
14:00 +14°C° 0.5 mm 7 m/S 739 mmHg 58%
15:00 +14°C° 0.2 mm 6 m/S 739 mmHg 58%
16:00 +14°C° 0.2 mm 5 m/S 739 mmHg 57%
17:00 +14°C° 0.2 mm 5 m/S 739 mmHg 56%
18:00 +12°C° 0 mm 4 m/S 739 mmHg 63%
19:00 +11°C° 0 mm 4 m/S 740 mmHg 71%
20:00 +9°C° 0 mm 3 m/S 740 mmHg 78%
21:00 +8°C° 0.4 mm 4 m/S 740 mmHg 82%
22:00 +8°C° 0.4 mm 4 m/S 740 mmHg 85%
23:00 +8°C° 0.4 mm 4 m/S 739 mmHg 89%

übermorgen, 23 April, Freitag

Zeit Temperatur Niederschläge Wind Luftdruck Luftfeuchtigkeit
00:00 +7°C° 0.2 mm 4 m/S 739 mmHg 90%
01:00 +7°C° 0.2 mm 4 m/S 739 mmHg 91%
02:00 +7°C° 0.2 mm 4 m/S 739 mmHg 92%
03:00 +6°C° 0.3 mm 4 m/S 740 mmHg 91%
04:00 +4°C° 0.3 mm 4 m/S 740 mmHg 91%
05:00 +3°C° 0.3 mm 4 m/S 741 mmHg 90%
06:00 +4°C° 0.2 mm 3 m/S 741 mmHg 86%
07:00 +4°C° 0.2 mm 3 m/S 741 mmHg 82%
08:00 +5°C° 0.2 mm 3 m/S 742 mmHg 78%
09:00 +5°C° 0.2 mm 3 m/S 742 mmHg 75%
10:00 +6°C° 0.2 mm 2 m/S 742 mmHg 72%
11:00 +7°C° 0.2 mm 2 m/S 742 mmHg 70%
12:00 +7°C° 0.4 mm 2 m/S 742 mmHg 71%
13:00 +7°C° 0.4 mm 3 m/S 742 mmHg 72%
14:00 +7°C° 0.4 mm 3 m/S 742 mmHg 73%
15:00 +7°C° 0.2 mm 2 m/S 742 mmHg 71%
16:00 +7°C° 0.2 mm 2 m/S 742 mmHg 68%
17:00 +7°C° 0.2 mm 2 m/S 742 mmHg 66%
18:00 +6°C° 0 mm 2 m/S 741 mmHg 69%
19:00 +5°C° 0 mm 2 m/S 741 mmHg 72%
20:00 +5°C° 0 mm 2 m/S 741 mmHg 76%
21:00 +4°C° 0 mm 2 m/S 741 mmHg 77%
22:00 +4°C° 0 mm 2 m/S 741 mmHg 78%
23:00 +4°C° 0 mm 2 m/S 740 mmHg 79%

24 April, Samstag

Zeit Temperatur Niederschläge Wind Luftdruck Luftfeuchtigkeit
00:00 +3°C° 0 mm 2 m/S 740 mmHg 81%
01:00 +2°C° 0 mm 2 m/S 740 mmHg 82%
02:00 +1°C° 0 mm 3 m/S 740 mmHg 84%
03:00 +1°C° 0 mm 2 m/S 740 mmHg 84%
04:00 +1°C° 0 mm 2 m/S 740 mmHg 85%
05:00 +1°C° 0 mm 2 m/S 740 mmHg 85%
06:00 +1°C° 0 mm 3 m/S 740 mmHg 81%
07:00 +2°C° 0 mm 3 m/S 740 mmHg 77%
08:00 +3°C° 0 mm 4 m/S 740 mmHg 72%
09:00 +2°C° 0.1 mm 5 m/S 740 mmHg 70%
10:00 +3°C° 0.1 mm 5 m/S 740 mmHg 67%
11:00 +3°C° 0.1 mm 6 m/S 740 mmHg 64%
12:00 +3°C° 0.1 mm 6 m/S 740 mmHg 65%
13:00 +3°C° 0.1 mm 6 m/S 740 mmHg 66%
14:00 +3°C° 0.1 mm 6 m/S 740 mmHg 68%
15:00 +3°C° 0.2 mm 6 m/S 740 mmHg 69%
16:00 +3°C° 0.2 mm 5 m/S 740 mmHg 69%
17:00 +3°C° 0.2 mm 5 m/S 740 mmHg 70%
18:00 +3°C° 0.1 mm 4 m/S 740 mmHg 76%
19:00 +2°C° 0.1 mm 3 m/S 740 mmHg 81%
20:00 +1°C° 0.1 mm 3 m/S 740 mmHg 86%
21:00 +1°C° 0 mm 2 m/S 740 mmHg 88%
22:00 +1°C° 0 mm 2 m/S 740 mmHg 90%
23:00 -1°C° 0 mm 2 m/S 740 mmHg 91%

25 April, Sonntag

Zeit Temperatur Niederschläge Wind Luftdruck Luftfeuchtigkeit
00:00 -1°C° 0 mm 2 m/S 740 mmHg 91%
01:00 -1°C° 0 mm 2 m/S 740 mmHg 91%
02:00 -1°C° 0 mm 2 m/S 740 mmHg 91%
03:00 -1°C° 0 mm 2 m/S 740 mmHg 92%
04:00 -1°C° 0 mm 2 m/S 740 mmHg 93%
05:00 -1°C° 0 mm 3 m/S 740 mmHg 94%
06:00 0°C° 0 mm 3 m/S 740 mmHg 87%
07:00 +1°C° 0 mm 3 m/S 740 mmHg 80%
08:00 +1°C° 0 mm 4 m/S 740 mmHg 74%
09:00 +3°C° 0.2 mm 4 m/S 740 mmHg 64%
10:00 +3°C° 0.2 mm 5 m/S 740 mmHg 55%
11:00 +4°C° 0.2 mm 6 m/S 740 mmHg 45%
12:00 +4°C° 0 mm 6 m/S 740 mmHg 44%
13:00 +6°C° 0 mm 5 m/S 740 mmHg 43%
14:00 +6°C° 0 mm 5 m/S 740 mmHg 41%
15:00 +6°C° 0 mm 5 m/S 740 mmHg 43%
16:00 +6°C° 0 mm 4 m/S 740 mmHg 44%
17:00 +6°C° 0 mm 4 m/S 740 mmHg 46%
18:00 +4°C° 0 mm 3 m/S 740 mmHg 54%
19:00 +4°C° 0 mm 2 m/S 740 mmHg 63%
20:00 +2°C° 0 mm 2 m/S 741 mmHg 71%
21:00 +2°C° 0.1 mm 2 m/S 741 mmHg 75%
22:00 +2°C° 0.1 mm 2 m/S 741 mmHg 78%
23:00 +1°C° 0.1 mm 2 m/S 741 mmHg 82%

26 April, Montag

Zeit Temperatur Niederschläge Wind Luftdruck Luftfeuchtigkeit
00:00 +1°C° 0 mm 2 m/S 741 mmHg 84%
01:00 -1°C° 0 mm 2 m/S 741 mmHg 87%
02:00 -1°C° 0 mm 2 m/S 741 mmHg 89%
03:00 -1°C° 0 mm 2 m/S 741 mmHg 90%
04:00 -2°C° 0 mm 2 m/S 741 mmHg 91%
05:00 -2°C° 0 mm 2 m/S 741 mmHg 91%
06:00 +1°C° 0 mm 2 m/S 741 mmHg 86%
07:00 +2°C° 0 mm 2 m/S 741 mmHg 81%
08:00 +3°C° 0 mm 2 m/S 742 mmHg 76%
09:00 +4°C° 0 mm 2 m/S 742 mmHg 73%
10:00 +4°C° 0 mm 2 m/S 742 mmHg 70%
11:00 +5°C° 0 mm 2 m/S 742 mmHg 67%
12:00 +6°C° 0 mm 2 m/S 742 mmHg 63%
13:00 +6°C° 0 mm 2 m/S 741 mmHg 60%
14:00 +7°C° 0 mm 3 m/S 741 mmHg 56%
15:00 +7°C° 0 mm 3 m/S 741 mmHg 56%
16:00 +7°C° 0 mm 3 m/S 741 mmHg 55%
17:00 +7°C° 0 mm 3 m/S 741 mmHg 55%
18:00 +5°C° 0 mm 3 m/S 741 mmHg 60%
19:00 +4°C° 0 mm 3 m/S 741 mmHg 66%
20:00 +2°C° 0 mm 3 m/S 741 mmHg 72%
21:00 +2°C° 0 mm 3 m/S 741 mmHg 74%
22:00 +2°C° 0 mm 3 m/S 740 mmHg 75%
23:00 +1°C° 0 mm 4 m/S 740 mmHg 77%
Mehr zeigen

Wir brauchen deine Erlaubnis

Meteoprog und unser Service Anbieter werden persönliche Daten aufbewahren, so wie Cookies, Geräte Bezeichnung oder ähnliche Technologien von deinem Gerät und Prozess, so wie Persönliche Daten Inhalte und Werbungen, genauso wie social Media und den Verkehr zu analysieren.

  • Aufbewahrung und/oder Zugang zu deiner Geräte Informationen.

    Cookies, Geräte Bezeichnung oder andere Informationen, können aufbewahrt oder Zugang zu deinem Gerät erhalten, für den Grund, der oben angegeben wird.

  • Personalisierte Werbung und Inhalte, Messungen, Einblick in das Publikum und Produkt Entwicklung.

    Werbungen und Inhalte können personalisiert werden, basierend auf ein Profil. Mehr Daten können besser personalisierte Werbungen und Inhalte hinzufügen. Werbung und Inhalte können gezeigt und gemessen werden. Einblicke über das Publikum, welche die Werbung gesehen haben und den Inhalt, können abgeleitet werden. So wie Daten können genutzt werden, um es zu verbessern oder die Benutzer Erfahrung zu verbessern das System und die Software.

Wenn du “Ich stimme zu” klickst, erlaubst du uns, die Cookies zu benutzen die Geräte Bezeichnung, den Web oder ähnliche Technologien zu benutzen. Deine Settings, können in deinem Gerät bei deinem Browser geändert werden.

Für den bestimmten Zweck, berechtigten Interessen beruhen darauf, mehr als auf den Inhalt. Du kannst mehr darüber in unseren Privaten und Cookie Politik lesen.